Syracuse, NY

7:25 PM EDT on August 30, 2016 (GMT -0400)
Syracuse Hancock International

Weather History for KSYR - May, 2014

Change the Weather History Date:

Monday, May 5, 2014

  Actual Average Record
Temperature  
Mean Temperature 49 °F 54 °F  
Max Temperature 57 °F 65 °F 90 °F (1944)
Min Temperature 40 °F 43 °F 30 °F (1966)
Degree Days  
Heating Degree Days 16 11  
Month to date heating degree days 63 58  
Since 1 July heating degree days 6928 6393  
Cooling Degree Days 0 0  
Month to date cooling degree days 0 0  
Year to date cooling degree days 1 4  
Moisture  
Dew Point 33 °F    
Average Humidity 62    
Maximum Humidity 85    
Minimum Humidity 38    
Precipitation  
Precipitation 0.00 in 0.10 in 0.69 in (1917)
Month to date precipitation 0.17 0.49  
Year to date precipitation 13.84 11.20  
Snow  
Snow 0.00 in 0.00 in 0.00 in (2002)
Month to date snowfall 0.0 0.1  
Since 1 July snowfall 132.0 123.8  
Snow Depth 0.00 in    
Sea Level Pressure  
Sea Level Pressure 29.95 in    
Wind  
Wind Speed 8 mph (WNW)    
Max Wind Speed 18 mph    
Max Gust Speed 25 mph    
Visibility 10 miles    
Events      
T = Trace of Precipitation, MM = Missing Value Source: NWS Daily Summary

Daily Weather History Graph

Daily Weather History Graph

Search for Another Location

Airport or City:

Trip Planner

Search our weather history database for the weather conditions in past years. The results will help you decide how hot, cold, wet, or windy it might be!

Date:

Astronomy

May. 05, 2014 Rise Set
Actual Time 5:52 AM EDT 8:10 PM EDT
Civil Twilight 5:21 AM EDT 8:41 PM EDT
Nautical Twilight 4:42 AM EDT 9:21 PM EDT
Astronomical Twilight 3:58 AM EDT 10:04 PM EDT
Moon 11:10 AM EDT (5/5) 12:52 AM EDT (5/5)
Length of Visible Light 15h 20m
Length of Day
14h 17m
Waxing Crescent, 36% of the Moon is Illuminated
May 5
Waxing Crescent
May 6
First Quarter
May 14
Full
May 21
Last Quarter
May 28
New

Hourly Weather History & Observations

Time (EDT) Temp. Windchill Dew Point Humidity Pressure Visibility Wind Dir Wind Speed Gust Speed Precip Events Conditions
12:54 AM 46.0 °F 39.9 °F 37.0 °F 71% 29.91 in 10.0 mi West 13.8 mph 23.0 mph 0.00 in   Mostly Cloudy
1:54 AM 44.1 °F 37.4 °F 37.0 °F 76% 29.91 in 10.0 mi WNW 13.8 mph - N/A   Scattered Clouds
2:54 AM 44.1 °F 38.1 °F 37.0 °F 76% 29.92 in 10.0 mi West 11.5 mph - N/A   Overcast
3:54 AM 42.1 °F 36.6 °F 36.0 °F 79% 29.92 in 10.0 mi West 9.2 mph - N/A   Partly Cloudy
4:54 AM 41.0 °F 35.2 °F 36.0 °F 82% 29.94 in 10.0 mi West 9.2 mph - N/A   Scattered Clouds
5:54 AM 39.9 °F 32.9 °F 36.0 °F 86% 29.96 in 10.0 mi West 11.5 mph - N/A   Scattered Clouds
6:54 AM 41.0 °F 34.3 °F 36.0 °F 82% 29.99 in 10.0 mi West 11.5 mph - N/A   Scattered Clouds
7:54 AM 45.0 °F 39.3 °F 36.0 °F 71% 30.00 in 10.0 mi WNW 11.5 mph - N/A   Scattered Clouds
8:54 AM 46.9 °F - 34.0 °F 61% 30.01 in 10.0 mi WNW 12.7 mph 19.6 mph N/A   Scattered Clouds
9:54 AM 50.0 °F - 33.1 °F 52% 29.99 in 10.0 mi West 6.9 mph - N/A   Scattered Clouds
10:54 AM 52.0 °F - 28.9 °F 41% 29.99 in 10.0 mi NW 12.7 mph - N/A   Scattered Clouds
11:54 AM 53.1 °F - 32.0 °F 45% 29.99 in 10.0 mi NW 8.1 mph 17.3 mph N/A   Scattered Clouds
12:54 PM 55.0 °F - 30.0 °F 38% 29.99 in 10.0 mi NNW 11.5 mph - N/A   Scattered Clouds
1:54 PM 55.0 °F - 30.9 °F 40% 29.98 in 10.0 mi NW 5.8 mph 23.0 mph N/A   Scattered Clouds
2:54 PM 55.9 °F - 30.9 °F 39% 29.96 in 10.0 mi NW 11.5 mph - N/A   Mostly Cloudy
3:54 PM 55.9 °F - 30.9 °F 39% 29.95 in 10.0 mi NW 12.7 mph 19.6 mph N/A   Overcast
4:54 PM 55.0 °F - 30.9 °F 40% 29.94 in 10.0 mi WNW 9.2 mph - N/A   Overcast
5:54 PM 55.0 °F - 30.0 °F 38% 29.93 in 10.0 mi NW 9.2 mph - N/A   Overcast
6:54 PM 54.0 °F - 30.0 °F 40% 29.94 in 10.0 mi NNW 10.4 mph - N/A   Overcast
7:54 PM 52.0 °F - 30.0 °F 43% 29.94 in 10.0 mi NW 9.2 mph - N/A   Overcast
8:54 PM 48.0 °F - 30.9 °F 52% 29.94 in 10.0 mi Calm Calm - N/A   Mostly Cloudy
9:54 PM 46.0 °F - 34.0 °F 63% 29.94 in 10.0 mi Calm Calm - N/A   Mostly Cloudy
10:54 PM 45.0 °F - 36.0 °F 71% 29.94 in 10.0 mi Calm Calm - N/A   Mostly Cloudy
11:54 PM 45.0 °F - 34.0 °F 65% 29.92 in 10.0 mi Calm Calm - N/A   Mostly Cloudy